STARLINK-4187 (52850 NORAD) Tracking and Keplerian Element Data

This shows tracking and keplerian element data for the satellite.

Feedback or suggestion? Click here.




ElementValue
Catalog52850
NameSTARLINK-4187
Epoch Orbit1614
Epoch Day270.25001157
Epoch Year2022
RAAN287.9535
Inclination53.2164
Eccentricity0.000177
Argument of Perigee49.6574
Mean Anonmoly68.6893
Mean Motion15.08847758
Decay Rate-0.00025367
L11 52850U 22062W 22270.25001157 -.00025367 00000+0 -15810-2 0 9997
L22 52850 53.2164 287.9535 0001770 49.6574 68.6893 15.08847758 16147

Live tracking and technical data element details for STARLINK-4187 (NORAD 52850). STARLINK-4187 can be tracked NOW for your location showing map with azimuth and elevation plus other details from your city location.

Track the satellite on the map from your city or location and see movement details for azimuth, elevation, latitude, longitude, range, height, and movement on the map or in text.







IsCatalogInMostPopularTable: catalog: 52850, numindb: 11
Update: records affected: 1



GetName: 52850 STARLINK-4187

Hit Count: updated at: Thu, 06 Oct 2022 04:48:27 GMT